Time,TemperatureF,DewpointF,PressureIn,WindDirection,WindDirectionDegrees,WindSpeedMPH,WindSpeedGustMPH,Humidity,HourlyPrecipIn,Conditions,Clouds,dailyrainin,SoftwareType,DateUTC
2013-01-29 00:00:00,63.3,62.4,29.99,SSE,162,0.0,0.0,97,0.00,,,0.39,Wunderground v.1.15,2013-01-29 10:00:00,
2013-01-29 00:05:00,63.2,62.3,29.99,SSE,162,0.0,2.0,97,0.00,,,0.39,Wunderground v.1.15,2013-01-29 10:05:00,
2013-01-29 00:11:00,63.3,62.4,29.99,SSE,162,0.0,4.0,97,0.00,,,0.39,Wunderground v.1.15,2013-01-29 10:11:00,
2013-01-29 00:16:00,63.5,62.6,29.99,SSE,162,0.0,4.0,97,0.19,,,0.41,Wunderground v.1.15,2013-01-29 10:16:00,
2013-01-29 00:22:00,63.6,62.7,29.99,SSE,162,0.0,4.0,97,0.07,,,0.41,Wunderground v.1.15,2013-01-29 10:22:00,
2013-01-29 00:28:00,63.7,62.8,29.99,SSE,162,1.0,4.0,97,0.04,,,0.41,Wunderground v.1.15,2013-01-29 10:28:00,
2013-01-29 00:33:00,63.5,62.3,29.99,SSE,162,1.0,4.0,96,0.00,,,0.41,Wunderground v.1.15,2013-01-29 10:33:00,
2013-01-29 00:39:00,63.4,62.2,29.99,SSE,162,0.0,4.0,96,0.00,,,0.41,Wunderground v.1.15,2013-01-29 10:39:00,
2013-01-29 00:45:00,63.4,62.2,29.99,SSE,162,0.0,4.0,96,0.00,,,0.41,Wunderground v.1.15,2013-01-29 10:45:00,
2013-01-29 00:50:00,63.3,62.1,29.99,SSE,163,1.0,5.0,96,0.00,,,0.41,Wunderground v.1.15,2013-01-29 10:50:00,
2013-01-29 00:56:00,63.2,62.0,29.99,SSE,163,1.0,5.0,96,0.00,,,0.41,Wunderground v.1.15,2013-01-29 10:56:00,
2013-01-29 01:01:00,63.2,62.0,29.99,SSE,163,1.0,5.0,96,0.00,,,0.00,Wunderground v.1.15,2013-01-29 11:01:00,
2013-01-29 01:07:00,63.2,62.0,29.99,SSE,163,1.0,5.0,96,0.00,,,0.00,Wunderground v.1.15,2013-01-29 11:07:00,
2013-01-29 01:12:00,63.1,61.9,29.99,SSE,163,0.0,5.0,96,0.00,,,0.00,Wunderground v.1.15,2013-01-29 11:12:00,
2013-01-29 01:18:00,63.0,61.8,29.99,SSE,163,0.0,5.0,96,0.00,,,0.00,Wunderground v.1.15,2013-01-29 11:18:00,
2013-01-29 01:23:00,63.1,61.9,29.99,SSE,163,0.0,4.0,96,0.00,,,0.00,Wunderground v.1.15,2013-01-29 11:23:00,
2013-01-29 01:29:00,63.1,61.9,29.98,SSE,163,0.0,4.0,96,0.00,,,0.00,Wunderground v.1.15,2013-01-29 11:29:00,
2013-01-29 01:35:00,63.0,61.8,29.98,SSE,163,1.0,4.0,96,0.00,,,0.00,Wunderground v.1.15,2013-01-29 11:35:00,
2013-01-29 01:40:00,63.0,61.8,29.98,SSE,163,1.0,4.0,96,0.00,,,0.00,Wunderground v.1.15,2013-01-29 11:40:00,
2013-01-29 01:46:00,63.1,61.9,29.98,SSE,163,0.0,6.0,96,0.00,,,0.00,Wunderground v.1.15,2013-01-29 11:46:00,
2013-01-29 01:52:00,63.1,61.9,29.98,SSE,163,0.0,6.0,96,0.00,,,0.00,Wunderground v.1.15,2013-01-29 11:52:00,
2013-01-29 01:57:00,63.1,61.9,29.98,SSE,163,0.0,6.0,96,0.00,,,0.00,Wunderground v.1.15,2013-01-29 11:57:00,
2013-01-29 02:03:00,63.1,61.9,29.98,SSE,163,1.0,6.0,96,0.00,,,0.00,Wunderground v.1.15,2013-01-29 12:03:00,
2013-01-29 02:09:00,63.1,61.9,29.98,SSE,163,1.0,6.0,96,0.00,,,0.00,Wunderground v.1.15,2013-01-29 12:09:00,
2013-01-29 02:14:00,63.1,61.9,29.98,SSE,163,1.0,5.0,96,0.00,,,0.00,Wunderground v.1.15,2013-01-29 12:14:00,
2013-01-29 02:20:00,63.0,61.8,29.97,SSE,163,1.0,1.0,96,0.00,,,0.00,Wunderground v.1.15,2013-01-29 12:20:00,
2013-01-29 02:26:00,62.9,61.7,29.97,SSE,163,1.0,5.0,96,0.00,,,0.00,Wunderground v.1.15,2013-01-29 12:26:00,
2013-01-29 02:31:00,62.9,61.7,29.97,SSE,163,1.0,5.0,96,0.00,,,0.00,Wunderground v.1.15,2013-01-29 12:31:00,
2013-01-29 02:37:00,62.9,61.7,29.97,SSE,163,1.0,5.0,96,0.00,,,0.00,Wunderground v.1.15,2013-01-29 12:37:00,
2013-01-29 02:43:00,62.8,61.6,29.97,SSE,163,0.0,5.0,96,0.00,,,0.00,Wunderground v.1.15,2013-01-29 12:43:00,
2013-01-29 02:49:00,62.9,61.7,29.97,SSE,163,1.0,5.0,96,0.00,,,0.00,Wunderground v.1.15,2013-01-29 12:49:00,
2013-01-29 02:54:00,62.9,61.7,29.97,SSE,163,2.0,5.0,96,0.00,,,0.00,Wunderground v.1.15,2013-01-29 12:54:00,
2013-01-29 03:00:00,62.8,61.6,29.97,SSE,163,1.0,5.0,96,0.00,,,0.00,Wunderground v.1.15,2013-01-29 13:00:00,
2013-01-29 03:06:00,62.8,61.6,29.96,SSE,163,1.0,5.0,96,0.00,,,0.00,Wunderground v.1.15,2013-01-29 13:06:00,
2013-01-29 03:11:00,62.7,61.2,29.96,SSE,163,0.0,5.0,95,0.00,,,0.00,Wunderground v.1.15,2013-01-29 13:11:00,
2013-01-29 03:17:00,62.4,60.9,29.97,SSE,163,0.0,5.0,95,0.00,,,0.00,Wunderground v.1.15,2013-01-29 13:17:00,
2013-01-29 03:23:00,62.4,61.2,29.97,SSE,163,0.0,4.0,96,0.00,,,0.00,Wunderground v.1.15,2013-01-29 13:23:00,
2013-01-29 03:28:00,62.4,61.2,29.97,SSE,163,0.0,4.0,96,0.00,,,0.00,Wunderground v.1.15,2013-01-29 13:28:00,
2013-01-29 03:33:00,62.3,61.1,29.96,SSE,163,0.0,4.0,96,0.00,,,0.00,Wunderground v.1.15,2013-01-29 13:33:00,
2013-01-29 03:38:00,62.3,61.1,29.97,SSE,163,0.0,4.0,96,0.00,,,0.00,Wunderground v.1.15,2013-01-29 13:38:00,
2013-01-29 03:44:00,62.4,61.2,29.97,SSE,163,2.0,4.0,96,0.00,,,0.00,Wunderground v.1.15,2013-01-29 13:44:00,
2013-01-29 03:50:00,62.3,61.1,29.97,SSE,163,3.0,6.0,96,0.00,,,0.00,Wunderground v.1.15,2013-01-29 13:50:00,
2013-01-29 03:55:00,62.3,61.1,29.97,SSW,194,3.0,6.0,96,0.00,,,0.00,Wunderground v.1.15,2013-01-29 13:55:00,
2013-01-29 04:01:00,62.2,61.0,29.97,SSW,196,3.0,6.0,96,0.00,,,0.00,Wunderground v.1.15,2013-01-29 14:01:00,
2013-01-29 04:07:00,62.3,61.1,29.97,SSW,197,2.0,6.0,96,0.00,,,0.00,Wunderground v.1.15,2013-01-29 14:07:00,
2013-01-29 04:13:00,62.5,61.3,29.97,SSW,197,2.0,6.0,96,0.00,,,0.00,Wunderground v.1.15,2013-01-29 14:13:00,
2013-01-29 04:19:00,62.4,60.9,29.97,SSW,197,1.0,6.0,95,0.00,,,0.00,Wunderground v.1.15,2013-01-29 14:19:00,
2013-01-29 04:25:00,62.4,61.2,29.97,SSW,197,0.0,6.0,96,0.00,,,0.00,Wunderground v.1.15,2013-01-29 14:25:00,
2013-01-29 04:30:00,62.4,61.2,29.97,SSW,197,0.0,6.0,96,0.00,,,0.00,Wunderground v.1.15,2013-01-29 14:30:00,
2013-01-29 04:36:00,62.6,61.4,29.97,SSW,197,0.0,6.0,96,0.00,,,0.00,Wunderground v.1.15,2013-01-29 14:36:00,
2013-01-29 04:42:00,62.8,61.6,29.98,SSW,197,1.0,3.0,96,0.00,,,0.00,Wunderground v.1.15,2013-01-29 14:42:00,
2013-01-29 04:48:00,62.8,61.6,29.97,SSW,197,1.0,4.0,96,0.00,,,0.00,Wunderground v.1.15,2013-01-29 14:48:00,
2013-01-29 04:53:00,62.9,61.7,29.97,SW,227,2.0,5.0,96,0.00,,,0.00,Wunderground v.1.15,2013-01-29 14:53:00,
2013-01-29 04:59:00,62.9,61.4,29.97,SW,227,3.0,5.0,95,0.00,,,0.00,Wunderground v.1.15,2013-01-29 14:59:00,
2013-01-29 05:04:00,62.9,61.4,29.97,SW,227,1.0,7.0,95,0.00,,,0.00,Wunderground v.1.15,2013-01-29 15:04:00,
2013-01-29 05:09:00,62.9,61.4,29.97,SW,227,1.0,7.0,95,0.00,,,0.00,Wunderground v.1.15,2013-01-29 15:09:00,
2013-01-29 05:15:00,62.9,61.4,29.97,SW,227,0.0,7.0,95,0.00,,,0.00,Wunderground v.1.15,2013-01-29 15:15:00,
2013-01-29 05:21:00,62.8,61.3,29.97,SW,227,0.0,3.0,95,0.00,,,0.00,Wunderground v.1.15,2013-01-29 15:21:00,
2013-01-29 05:27:00,62.9,61.4,29.97,SW,227,1.0,3.0,95,0.00,,,0.00,Wunderground v.1.15,2013-01-29 15:27:00,
2013-01-29 05:33:00,63.0,61.5,29.97,SW,227,1.0,3.0,95,0.00,,,0.00,Wunderground v.1.15,2013-01-29 15:33:00,
2013-01-29 05:39:00,62.9,61.4,29.97,SW,227,0.0,3.0,95,0.00,,,0.00,Wunderground v.1.15,2013-01-29 15:39:00,
2013-01-29 05:44:00,62.8,61.3,29.98,SW,227,0.0,3.0,95,0.00,,,0.00,Wunderground v.1.15,2013-01-29 15:44:00,
2013-01-29 05:50:00,62.8,61.3,29.98,SW,227,0.0,1.0,95,0.00,,,0.00,Wunderground v.1.15,2013-01-29 15:50:00,
2013-01-29 05:56:00,62.9,61.7,29.98,SW,227,0.0,1.0,96,0.00,,,0.00,Wunderground v.1.15,2013-01-29 15:56:00,
2013-01-29 06:01:00,63.1,61.9,29.98,SW,227,1.0,3.0,96,0.00,,,0.00,Wunderground v.1.15,2013-01-29 16:01:00,
2013-01-29 06:07:00,63.2,62.0,29.98,SW,227,1.0,3.0,96,0.00,,,0.00,Wunderground v.1.15,2013-01-29 16:07:00,
2013-01-29 06:13:00,63.3,61.8,29.98,SW,227,1.0,3.0,95,0.00,,,0.00,Wunderground v.1.15,2013-01-29 16:13:00,
2013-01-29 06:19:00,63.4,61.9,29.98,SW,227,1.0,4.0,95,0.00,,,0.00,Wunderground v.1.15,2013-01-29 16:19:00,
2013-01-29 06:24:00,63.4,61.9,29.98,SW,227,0.0,4.0,95,0.00,,,0.00,Wunderground v.1.15,2013-01-29 16:24:00,
2013-01-29 06:30:00,63.5,62.0,29.98,SW,227,1.0,4.0,95,0.00,,,0.00,Wunderground v.1.15,2013-01-29 16:30:00,
2013-01-29 06:36:00,63.5,62.0,29.98,SW,227,2.0,4.0,95,0.00,,,0.00,Wunderground v.1.15,2013-01-29 16:36:00,
2013-01-29 06:41:00,63.5,62.0,29.99,SW,227,1.0,4.0,95,0.00,,,0.00,Wunderground v.1.15,2013-01-29 16:41:00,
2013-01-29 06:47:00,63.7,62.2,29.98,SW,227,0.0,4.0,95,0.00,,,0.00,Wunderground v.1.15,2013-01-29 16:47:00,
2013-01-29 06:53:00,63.8,62.3,29.99,SW,227,1.0,4.0,95,0.00,,,0.00,Wunderground v.1.15,2013-01-29 16:53:00,
2013-01-29 06:58:00,63.9,62.1,29.99,SW,227,0.0,4.0,94,0.00,,,0.00,Wunderground v.1.15,2013-01-29 16:58:00,
2013-01-29 07:03:00,64.0,62.5,29.99,SW,227,0.0,4.0,95,0.00,,,0.00,Wunderground v.1.15,2013-01-29 17:03:00,
2013-01-29 07:09:00,64.0,62.5,29.99,SW,227,0.0,4.0,95,0.00,,,0.00,Wunderground v.1.15,2013-01-29 17:09:00,
2013-01-29 07:15:00,64.0,62.2,30.00,SW,227,0.0,3.0,94,0.00,,,0.00,Wunderground v.1.15,2013-01-29 17:15:00,
2013-01-29 07:20:00,63.9,62.1,29.99,SW,227,0.0,2.0,94,0.00,,,0.00,Wunderground v.1.15,2013-01-29 17:20:00,
2013-01-29 07:26:00,63.9,62.4,30.00,SW,227,0.0,2.0,95,0.00,,,0.00,Wunderground v.1.15,2013-01-29 17:26:00,
2013-01-29 07:32:00,63.9,62.1,29.99,SW,227,0.0,2.0,94,0.00,,,0.00,Wunderground v.1.15,2013-01-29 17:32:00,
2013-01-29 07:37:00,63.9,62.4,30.00,SW,227,0.0,2.0,95,0.00,,,0.00,Wunderground v.1.15,2013-01-29 17:37:00,
2013-01-29 07:43:00,63.9,62.4,30.00,SW,227,0.0,1.0,95,0.00,,,0.00,Wunderground v.1.15,2013-01-29 17:43:00,
2013-01-29 07:49:00,64.1,62.6,30.00,SW,227,0.0,1.0,95,0.00,,,0.00,Wunderground v.1.15,2013-01-29 17:49:00,
2013-01-29 07:54:00,64.3,62.8,30.01,SW,227,0.0,2.0,95,0.00,,,0.00,Wunderground v.1.15,2013-01-29 17:54:00,
2013-01-29 08:00:00,64.5,63.0,30.01,SW,227,1.0,1.0,95,0.00,,,0.00,Wunderground v.1.15,2013-01-29 18:00:00,
2013-01-29 08:05:00,64.7,63.2,30.01,SW,227,1.0,4.0,95,0.00,,,0.00,Wunderground v.1.15,2013-01-29 18:05:00,
2013-01-29 08:11:00,65.1,63.6,30.01,SW,227,0.0,4.0,95,0.00,,,0.00,Wunderground v.1.15,2013-01-29 18:11:00,